Theta_e
343 341 344 351 351 350 348 348 349 349 349 348 349 347 347 348 348 349 349 347 346 346 348 348 348 346 349 348 348 348 348 347 345 345 345 347 347 347 345 344 347 347 347 345 347 346 345 345 343 342 342 341 342 344 345 345 343 340 338 337 340 340 340 341 340 335 340 336 339 338 338 338 338 339 339 337 336 338 339 338 335 333 332 333 335
343 343 345 347 351 351 348 348 349 349 349 348 348 350 350 350 349 348 348 348 347 346 346 348 348 346 345 347 348 348 348 347 348 348 347 347 347 346 344 344 344 346 346 346 346 346 345 345 344 343 342 342 343 344 346 346 345 342 340 341 340 339 339 339 339 339 338 335 336 336 336 336 336 336 335 335 336 337 337 335 336 332 330 333 332
344 344 345 347 351 350 349 348 348 349 348 348 349 351 350 349 349 349 348 348 348 347 345 347 346 347 346 348 348 348 348 348 348 348 347 347 347 347 346 346 346 346 343 345 347 345 345 345 345 344 342 342 343 343 344 344 343 342 341 340 340 339 338 337 338 338 338 338 337 334 334 336 335 335 335 334 335 336 337 334 334 334 331 332 332
344 344 345 349 350 350 350 349 349 348 348 348 349 349 350 349 348 348 347 346 346 346 345 346 346 345 346 348 349 349 349 348 348 348 347 347 347 347 347 347 346 345 343 344 345 345 345 344 344 343 343 343 343 343 343 342 342 342 341 340 340 339 337 336 336 337 338 335 338 338 333 328 331 332 332 333 335 334 339 334 333 333 333 333 333
345 345 345 347 346 349 350 349 349 349 348 348 348 349 348 348 348 348 347 344 344 344 346 346 345 345 346 348 348 348 348 348 348 347 347 346 345 345 345 347 346 345 343 343 344 345 344 343 343 344 344 343 343 342 342 342 342 341 341 340 339 338 336 335 335 335 338 336 335 337 325 326 326 331 332 333 332 335 338 335 335 334 334 333 332
346 346 345 344 346 347 350 350 349 349 349 348 348 348 348 347 347 347 346 346 345 344 343 345 344 345 348 347 347 347 347 347 347 346 345 345 344 344 345 346 345 344 343 343 344 344 344 343 343 344 344 344 342 341 341 341 341 341 340 339 338 337 336 334 335 337 338 338 337 334 327 326 327 329 333 333 337 339 334 333 333 333 336 335 333
345 346 344 343 345 347 349 350 349 349 349 349 348 347 347 347 346 346 345 345 345 345 344 343 343 346 346 346 346 346 346 345 345 344 344 343 343 343 343 346 346 345 344 345 344 343 343 344 344 344 344 344 342 341 341 341 341 340 339 338 337 337 335 333 334 338 336 337 326 326 322 329 329 333 337 336 337 338 337 335 333 334 335 335 334
346 345 347 344 345 347 348 349 350 349 348 348 348 347 347 346 346 345 343 343 344 345 345 344 345 345 345 345 345 345 344 344 344 344 343 343 342 343 343 344 344 345 345 344 344 344 344 345 344 344 343 342 341 341 340 340 340 339 338 337 336 334 333 334 336 336 337 334 324 324 322 327 334 336 341 341 340 338 336 335 333 333 335 333 333
346 347 344 345 346 347 347 348 349 348 348 347 347 347 347 346 345 344 344 344 345 344 344 343 344 344 344 344 345 344 344 343 342 342 342 342 343 343 344 344 344 344 344 344 344 344 344 343 343 343 343 341 341 341 339 338 337 337 336 335 334 334 332 332 335 335 332 327 323 322 326 327 330 330 336 337 335 335 335 332 333 332 332 331 328
344 346 346 348 347 346 346 347 348 347 347 346 346 346 346 346 345 344 343 342 343 344 344 345 343 343 343 344 344 344 344 343 342 342 341 341 344 343 344 344 343 344 344 343 344 344 344 343 343 342 342 341 340 339 338 337 337 335 337 334 334 335 335 336 337 336 325 323 322 319 324 337 327 329 332 334 332 330 330 331 334 333 333 329 327
344 347 348 345 346 345 346 347 348 347 345 345 345 344 344 344 344 343 343 343 342 342 343 344 343 343 343 343 344 344 344 344 342 341 341 341 342 343 343 343 343 343 343 344 344 343 343 343 342 342 341 340 339 338 337 336 335 334 333 335 335 335 336 337 338 327 324 325 324 319 322 331 328 327 333 332 331 331 331 331 330 330 328 329 329
342 347 347 346 348 344 345 345 345 344 346 344 343 343 342 342 341 341 341 342 342 341 343 344 344 344 343 343 344 344 344 343 343 342 342 341 341 342 342 343 343 343 343 344 343 343 342 342 342 341 341 340 340 339 339 338 338 337 336 335 336 334 337 337 334 327 325 325 318 327 325 327 329 330 333 332 331 331 331 330 330 330 329 328 329
342 346 346 346 346 343 343 342 343 343 343 343 343 343 343 342 341 339 339 339 340 341 341 344 344 343 343 343 344 344 344 343 343 343 342 341 343 342 342 344 343 342 343 343 343 343 342 342 342 342 340 340 339 339 339 338 338 339 339 338 338 338 339 338 334 329 328 328 325 325 328 328 331 335 334 332 332 332 333 332 332 332 332 332 330
342 341 342 345 345 346 341 342 342 342 343 343 343 343 342 341 340 339 338 337 338 339 341 343 343 344 344 344 344 344 344 344 344 343 343 343 343 344 344 342 341 342 343 343 342 342 342 342 341 341 340 340 340 339 338 338 338 338 337 337 336 337 335 335 335 332 328 327 327 328 325 332 332 337 337 339 338 339 335 335 335 334 334 333 334
341 342 343 343 344 344 343 341 341 341 342 344 343 344 343 341 340 339 338 337 337 339 340 343 343 343 343 343 343 342 344 343 343 343 342 344 343 342 341 341 341 342 342 342 342 342 342 341 341 340 340 340 339 338 337 337 336 336 336 335 335 334 329 333 333 333 331 330 328 327 328 329 336 336 337 338 338 339 338 336 334 333 335 335 336
341 341 343 340 342 342 342 343 340 339 340 341 342 343 344 343 342 340 339 338 337 337 338 342 342 343 343 342 342 342 343 343 342 342 341 341 341 341 341 340 341 342 342 342 342 342 341 340 340 339 340 339 339 338 337 336 336 335 335 334 333 332 331 330 329 330 328 327 327 329 327 331 335 335 334 336 337 338 338 337 335 335 335 335 335
339 339 339 341 343 340 341 341 339 338 338 339 339 342 344 344 342 342 340 339 341 343 343 343 343 343 343 343 342 342 341 341 340 341 340 340 341 340 340 340 341 342 341 342 342 340 339 338 337 336 338 339 339 338 336 335 335 334 333 332 332 331 329 328 328 329 328 333 333 331 327 333 335 334 334 334 335 335 335 336 335 335 334 334 333
332 334 334 339 340 341 341 341 339 339 339 338 337 339 341 342 341 342 343 342 343 343 343 343 342 342 342 341 342 342 341 339 337 339 338 336 337 338 339 340 341 342 342 342 341 338 337 336 336 336 335 340 339 337 336 334 334 332 331 331 329 328 328 327 325 327 327 335 329 331 327 337 336 334 333 333 333 335 335 334 334 334 333 333 334
325 327 325 325 327 337 341 341 340 340 340 338 338 337 337 338 339 341 342 342 342 341 340 339 339 339 340 340 341 341 340 339 338 338 336 336 336 335 335 339 342 342 341 340 337 336 336 335 335 334 336 340 338 336 335 332 331 330 328 327 327 326 325 325 326 326 327 327 328 328 329 336 335 335 334 333 334 333 333 333 333 335 334 334 334
319 319 318 319 321 325 332 339 341 338 338 337 338 337 335 335 337 338 339 338 339 337 336 335 335 334 335 336 337 338 339 338 337 337 335 334 335 333 333 336 340 342 340 338 337 336 335 335 333 334 337 339 338 336 333 331 330 328 328 325 324 322 321 323 326 326 326 325 328 326 336 335 334 334 334 333 333 334 332 332 332 332 332 333 334
313 313 314 315 315 316 319 324 331 337 338 337 338 338 336 333 334 334 334 335 336 334 332 329 328 327 330 332 334 337 339 338 337 337 334 335 330 329 331 334 336 341 341 339 338 337 335 334 334 335 336 339 337 335 333 331 328 326 324 323 321 319 322 323 324 324 324 323 326 330 334 333 333 332 333 333 333 334 333 332 332 331 331 332 332
310 310 311 311 312 313 313 315 322 325 330 338 341 340 337 335 336 335 335 333 332 331 330 335 340 335 330 332 335 337 338 338 337 339 335 335 332 327 329 331 333 337 341 340 339 337 336 335 334 334 336 338 335 329 327 328 326 325 322 319 318 322 324 324 323 322 322 322 325 330 331 330 330 330 331 332 333 334 334 333 332 333 333 333 333
305 308 308 310 309 311 311 312 315 318 325 333 339 339 336 335 335 337 338 335 337 337 337 338 337 337 336 337 336 335 335 337 336 337 337 330 334 327 328 330 332 334 338 339 338 339 336 336 335 333 336 337 332 329 326 323 321 325 320 318 320 323 322 322 321 320 320 321 322 333 330 329 330 330 331 331 332 331 332 332 333 332 332 332 332
303 306 306 308 308 309 309 310 313 315 318 325 332 334 336 335 334 335 335 336 337 336 336 336 337 336 335 335 336 336 335 335 336 336 335 336 332 327 326 327 330 332 334 336 336 336 337 336 335 336 335 332 330 327 329 326 323 321 321 321 323 325 324 322 321 322 323 325 324 330 333 331 329 331 331 331 331 331 331 331 332 332 332 332 331
302 304 305 305 306 307 308 309 311 314 316 320 326 331 333 332 334 335 335 334 335 335 335 335 338 337 336 336 337 337 336 333 334 331 334 333 333 333 332 332 333 333 329 336 335 334 333 331 330 329 327 330 329 324 323 322 324 324 324 323 323 324 323 323 322 322 323 324 324 329 331 329 330 329 330 330 330 330 330 331 331 331 331 331 330
303 302 303 303 306 307 307 308 311 313 315 318 321 327 332 330 332 332 332 333 334 333 334 335 337 338 337 336 335 335 335 335 334 334 334 333 334 333 335 334 333 332 333 332 334 332 331 332 332 330 328 324 325 325 324 323 322 322 320 320 320 320 320 320 321 321 322 321 322 326 328 330 329 330 331 331 331 330 330 331 330 331 332 331 331
298 300 303 303 306 306 307 309 310 313 315 319 323 325 329 332 332 332 333 332 333 332 333 335 336 338 336 337 334 333 333 332 334 334 333 334 332 334 335 333 334 334 333 333 331 332 331 330 326 324 323 323 323 323 323 323 322 322 321 320 320 321 321 319 319 320 320 321 323 324 326 330 331 331 331 331 330 330 330 330 331 331 331 332 331
297 300 300 301 304 305 307 309 310 313 315 319 322 326 329 332 332 331 333 331 332 332 333 335 336 337 336 336 334 335 333 331 330 332 334 335 333 334 333 333 334 335 334 334 332 331 329 325 325 324 323 322 322 323 323 321 321 320 321 320 320 321 320 320 322 322 322 322 321 321 323 328 331 331 331 332 332 331 331 331 331 332 332 331 331
294 297 298 299 302 305 306 307 309 313 314 317 320 322 325 331 334 332 331 331 332 332 332 334 335 335 336 335 333 333 332 331 330 331 334 334 334 333 334 333 333 332 333 332 332 330 324 324 324 323 323 323 322 322 320 320 320 320 320 320 320 319 318 318 318 318 319 318 319 319 322 325 329 332 331 332 331 331 331 331 331 331 332 332 332
296 298 298 298 300 304 304 306 309 312 313 315 316 317 318 320 328 327 329 330 331 332 333 332 332 333 334 335 333 331 332 331 330 331 330 330 331 331 330 329 329 330 332 330 329 327 324 323 324 323 322 321 320 320 320 320 321 321 320 320 320 320 319 319 319 319 319 319 319 320 320 322 325 328 331 332 332 332 332 333 333 333 333 332 331
296 297 299 299 302 303 304 306 309 311 312 311 313 313 313 314 315 318 321 322 326 326 325 324 323 322 323 325 326 326 327 328 329 329 329 329 330 330 330 331 329 330 331 330 330 328 326 324 324 322 321 321 321 321 320 320 320 320 320 321 321 320 320 320 319 319 319 319 319 318 321 321 322 324 328 331 332 333 333 333 333 333 333 333 333
294 294 295 299 299 302 304 306 309 310 310 310 310 309 309 310 311 313 312 316 319 318 318 318 317 317 317 319 320 321 322 324 326 328 329 327 327 328 327 327 327 329 330 331 330 330 328 327 326 324 322 321 321 320 321 320 320 321 320 320 321 320 319 320 320 319 320 320 320 320 320 321 321 322 324 328 331 332 333 333 333 334 334 334 333
296 296 295 296 298 301 303 304 308 309 308 308 307 307 307 306 307 308 307 310 312 311 312 313 314 315 315 315 316 317 320 321 322 324 327 328 329 329 329 329 329 327 328 329 328 328 328 327 325 325 323 322 322 322 323 322 320 321 322 322 321 321 321 320 320 320 320 320 320 320 320 320 320 322 322 323 325 329 332 333 333 334 334 334 333
294 296 295 296 298 300 303 304 307 308 308 307 307 306 305 305 305 305 305 306 307 307 308 308 310 311 312 312 313 313 315 318 320 322 327 328 328 327 326 326 325 326 326 328 328 329 328 327 325 323 322 322 321 321 321 320 320 320 321 322 321 321 322 321 321 322 321 324 324 323 323 323 323 324 323 323 322 324 328 332 333 333 333 333 333
293 295 295 295 296 298 302 303 306 307 308 306 305 305 305 304 304 303 303 304 304 305 306 307 307 307 309 309 310 311 312 314 316 319 321 322 325 324 324 325 327 327 326 326 327 327 327 326 324 323 322 321 322 321 322 321 320 321 321 320 320 322 321 321 320 320 322 323 325 324 324 324 325 326 325 323 323 324 325 328 332 333 333 333 333
292 294 294 295 295 297 299 301 304 304 306 307 305 304 304 303 303 303 302 303 303 303 303 304 305 306 305 306 307 309 310 311 312 314 315 315 316 317 318 321 324 325 322 322 322 323 325 325 324 323 321 320 320 320 321 320 320 320 320 321 321 320 320 320 321 322 323 323 323 323 325 325 326 325 322 323 323 325 325 326 328 331 332 333 332
293 294 294 294 294 296 297 298 299 303 303 306 305 304 304 302 302 301 301 301 301 301 301 303 303 303 303 304 306 307 307 308 310 311 310 310 310 311 311 313 317 317 315 315 315 315 319 322 323 322 322 320 319 318 318 319 319 319 319 319 320 321 319 321 323 323 325 324 324 326 326 325 324 320 324 325 325 325 324 323 325 328 329 328 327
293 294 296 294 294 295 296 297 298 300 300 302 304 303 302 302 302 301 302 300 300 300 300 300 300 301 301 301 304 305 306 306 308 309 309 308 308 307 307 308 311 312 311 311 311 312 315 317 316 311 311 312 310 309 308 308 310 314 317 318 320 320 321 322 322 320 324 324 326 320 311 310 312 316 322 323 323 321 318 318 321 323 324 322 323
292 293 295 295 295 295 296 296 297 298 298 298 300 300 299 299 300 299 297 297 298 298 299 299 299 299 299 300 301 303 304 305 306 306 306 306 306 306 306 306 306 307 308 308 307 309 311 310 310 309 307 304 304 304 304 304 305 308 312 316 318 319 320 321 323 322 322 324 316 310 306 303 306 309 313 315 314 310 307 307 312 318 319 319 322
293 293 294 294 296 295 295 295 296 297 297 297 297 297 296 296 295 297 296 297 295 295 295 295 295 295 296 297 298 298 300 302 302 303 304 304 304 303 304 305 305 305 304 303 304 306 307 305 304 304 303 302 302 303 303 302 303 307 311 315 318 319 320 313 312 314 319 313 309 303 298 299 302 305 309 307 308 307 305 304 306 312 309 315 319
292 293 293 293 293 294 296 294 295 296 296 295 295 294 294 294 294 293 293 296 294 294 293 293 293 294 295 295 295 296 297 298 299 300 301 301 301 301 301 302 303 302 302 302 302 303 304 305 302 301 300 298 298 300 301 304 305 305 307 310 315 314 307 305 305 307 311 309 305 299 296 297 299 302 304 303 303 305 304 302 304 308 306 310 312
290 291 292 292 293 294 293 294 295 295 295 296 295 294 294 293 293 293 292 291 292 294 293 293 292 293 293 294 294 295 296 296 297 297 298 298 298 299 298 298 299 299 299 299 299 300 301 301 303 300 299 296 294 297 298 303 301 300 302 304 310 309 306 303 301 304 304 306 301 297 295 294 296 299 297 297 299 301 301 300 302 306 304 308 304
289 290 291 292 293 293 293 294 294 294 295 296 295 295 295 294 293 292 292 291 292 292 292 294 294 292 292 293 293 294 294 295 296 297 296 296 296 296 295 295 295 297 295 295 295 295 296 297 298 300 297 296 294 296 296 299 297 300 302 304 305 304 308 298 297 301 300 303 300 298 296 295 294 298 295 295 296 296 297 297 300 302 302 305 301
289 289 290 291 292 293 293 293 294 294 294 296 297 295 296 295 294 293 292 292 291 292 291 292 291 291 291 292 292 292 293 293 294 295 295 295 296 295 295 294 294 294 294 293 293 293 293 294 295 296 297 293 294 293 295 295 296 299 300 300 302 300 295 293 291 297 297 301 298 297 297 296 295 297 295 294 295 295 295 295 297 298 299 301 296
288 289 290 290 291 290 292 293 293 294 294 296 295 295 295 294 294 293 293 291 291 291 290 289 290 290 290 291 291 292 292 292 293 293 294 293 294 295 294 294 294 294 294 293 292 293 293 293 293 293 293 292 291 292 292 294 294 296 297 297 296 293 290 289 290 296 294 297 295 296 297 295 294 295 295 295 296 295 295 295 296 296 297 297 294
288 289 290 290 289 289 290 291 292 293 293 294 295 294 293 292 291 290 288 288 287 288 287 288 288 288 289 290 291 292 292 292 292 292 293 293 293 293 293 293 293 293 294 292 292 292 292 292 292 292 292 292 291 290 290 292 293 294 296 295 294 291 288 290 288 285 292 296 294 294 294 294 294 294 295 294 295 295 295 295 296 295 297 295 294
288 289 290 290 289 289 289 290 290 291 293 293 293 295 292 292 291 290 289 288 287 288 289 290 290 290 290 290 290 291 292 291 291 292 292 292 292 292 292 292 291 291 292 291 290 290 291 292 292 291 291 292 291 289 289 290 292 291 293 295 296 296 295 288 285 288 286 291 292 291 291 292 292 294 294 294 295 294 294 295 295 296 297 296 294
288 289 289 290 289 288 288 289 290 291 291 292 292 294 292 291 290 290 290 288 288 288 288 289 290 291 290 290 290 290 291 291 291 291 291 291 291 291 291 291 290 290 291 290 289 290 290 291 291 290 290 290 289 289 288 288 288 288 291 290 290 294 295 292 289 287 287 284 286 289 289 289 290 291 292 293 292 292 293 294 295 295 296 297 295
287 287 288 288 289 288 288 288 288 289 290 291 292 291 294 292 291 289 288 289 289 289 289 289 288 289 288 288 288 289 290 290 291 290 290 290 291 290 290 290 290 290 290 289 289 289 289 289 288 288 288 288 288 288 287 287 286 286 287 287 287 287 287 288 288 287 285 283 283 283 284 286 287 288 289 291 289 290 293 294 294 294 295 296 294
287 289 288 288 288 287 287 287 287 288 289 289 290 290 290 292 290 289 288 288 288 287 287 287 286 286 286 286 287 287 287 288 288 289 289 289 289 289 289 288 288 289 290 287 287 287 288 288 288 288 288 287 287 287 287 287 287 286 286 287 285 284 284 284 284 284 284 285 281 281 282 282 281 284 287 287 287 288 291 292 291 292 295 294 292
287 287 288 287 288 287 286 286 286 287 288 288 289 289 289 289 289 289 288 288 288 287 286 286 286 286 285 285 285 286 286 287 287 287 288 288 288 289 288 288 289 289 289 287 287 287 287 287 287 287 287 286 287 287 287 287 286 286 285 285 285 284 283 282 282 283 283 281 281 281 282 283 282 282 285 286 287 287 288 288 290 292 290 290 291
Wind_Speed
6 10 7 10 7 8 9 8 9 8 8 7 9 12 12 9 9 10 9 9 8 7 11 9 11 6 8 9 11 11 11 11 12 10 11 12 11 10 8 5 8 11 12 12 8 10 11 12 12 12 12 13 13 13 12 13 13 13 13 13 13 13 13 14 14 11 8 12 15 15 13 12 13 12 12 12 12 14 11 13 13 7 7 8 13
8 8 8 8 9 8 8 8 8 9 8 7 7 10 11 10 11 11 9 11 11 8 6 10 9 10 2 10 10 10 10 9 9 9 10 11 11 10 9 7 6 9 10 11 10 9 11 11 11 12 11 12 12 12 12 12 13 12 12 13 12 12 12 13 10 7 9 11 13 13 13 12 12 11 11 11 12 13 12 14 15 6 3 11 11
9 7 7 7 11 9 8 8 9 9 9 8 8 10 11 11 11 13 11 11 11 8 7 7 8 8 7 10 10 10 9 9 9 9 9 9 10 9 9 10 9 10 7 7 9 9 9 10 11 11 11 11 11 12 12 12 11 12 12 12 12 12 12 10 7 6 6 7 11 13 13 14 12 12 11 10 11 12 11 13 10 7 6 11 10
8 7 7 7 11 10 8 9 9 9 10 9 8 9 11 12 10 12 12 11 10 11 8 6 4 7 9 10 10 9 8 8 8 9 9 9 10 9 9 9 10 10 7 5 8 9 8 10 11 11 10 10 11 11 11 11 11 11 11 11 11 11 10 7 4 3 5 3 6 8 3 7 6 9 9 10 11 11 8 10 10 11 10 10 9
7 7 8 7 5 9 10 10 9 9 9 10 10 8 10 11 11 10 13 11 7 9 5 7 8 7 9 9 9 9 8 8 7 8 8 8 8 9 10 11 11 9 9 5 7 9 9 10 10 11 10 11 10 10 10 10 10 10 10 10 10 10 9 5 3 4 3 2 5 4 1 7 4 9 9 9 9 6 6 8 9 10 11 11 10
7 7 7 6 7 5 10 11 11 11 10 10 11 10 9 10 10 10 11 13 10 10 5 8 5 9 9 8 9 8 7 7 7 7 7 7 7 7 9 11 11 9 8 10 10 8 9 10 10 11 11 10 10 9 8 9 9 10 9 9 9 9 8 3 4 6 6 7 6 3 4 6 5 4 7 8 10 9 9 10 10 9 12 12 10
8 6 7 8 6 7 8 10 12 12 11 11 11 11 11 9 9 9 9 7 9 8 8 7 4 9 8 8 8 7 6 6 6 7 7 6 6 6 7 10 10 9 9 10 10 9 9 10 10 10 10 9 9 9 8 8 8 9 9 9 8 8 6 3 3 6 6 5 5 0 4 5 5 3 9 8 9 10 9 9 9 8 10 14 11
5 2 2 7 6 8 10 9 10 12 12 11 11 11 10 12 13 11 12 10 7 8 7 6 5 7 7 7 7 6 5 5 5 5 6 6 6 7 7 8 9 9 9 9 10 10 10 10 10 9 9 9 9 8 8 7 7 7 7 7 7 5 4 1 3 6 8 6 2 6 4 5 5 5 9 11 10 9 10 9 9 9 10 12 11
4 3 4 3 8 12 10 9 10 12 12 12 11 11 11 10 9 10 10 11 11 9 8 6 4 7 5 6 6 6 6 5 5 5 5 4 6 7 8 8 8 9 9 10 10 10 10 10 9 8 8 8 8 8 8 7 7 6 6 6 5 4 2 1 5 5 4 5 4 6 4 4 4 4 8 9 8 8 9 8 7 7 9 9 9
9 3 3 5 8 10 10 10 9 11 12 12 11 10 10 10 10 9 7 6 7 8 9 9 5 5 5 6 6 6 6 6 5 5 5 5 8 7 9 7 8 9 9 9 10 10 10 9 8 8 7 8 8 8 7 7 6 6 5 5 4 4 2 5 7 7 5 1 3 5 3 3 5 5 7 9 8 8 7 7 6 4 4 7 7
7 3 4 7 8 10 11 10 10 8 10 10 10 11 10 9 8 7 7 6 6 5 6 7 6 5 5 5 5 5 6 5 6 5 5 4 7 8 7 8 8 9 9 10 10 10 9 9 8 7 7 8 8 8 7 6 6 5 4 4 4 4 5 7 7 5 3 4 4 1 2 7 4 3 8 8 7 6 5 5 5 4 1 3 4
6 4 5 7 10 11 11 11 10 10 7 7 10 10 10 9 8 6 5 6 6 3 5 4 5 4 4 4 4 5 5 5 5 5 5 5 6 7 8 9 9 8 9 9 9 9 8 8 8 8 7 7 7 7 6 5 5 4 4 3 3 4 7 8 5 6 2 2 3 3 3 4 3 4 8 7 5 3 3 2 3 3 2 3 3
5 6 6 6 7 10 11 11 10 10 9 3 5 8 8 9 8 7 5 5 5 5 4 4 4 3 3 3 4 5 5 4 5 5 5 5 4 3 7 8 8 9 9 9 8 8 7 7 7 7 6 5 5 5 5 4 4 4 3 3 3 4 7 9 5 5 3 4 0 1 0 1 4 7 8 5 3 3 5 5 4 4 4 4 2
2 6 5 5 7 12 12 10 11 12 9 5 6 7 8 8 7 5 5 5 5 4 5 4 3 5 4 2 2 3 5 4 6 5 5 6 7 9 9 7 7 8 9 9 8 7 7 7 7 6 5 5 5 4 4 4 4 4 4 3 4 3 7 6 6 5 1 3 2 3 3 5 3 9 7 6 7 7 4 3 2 3 3 3 4
3 1 6 4 5 7 13 11 11 13 10 7 6 7 9 9 8 7 6 5 5 5 5 6 5 5 4 3 2 2 4 4 4 5 5 3 9 9 9 6 5 5 8 8 8 8 7 7 6 6 5 5 4 5 4 4 5 5 4 3 3 3 3 4 6 5 3 2 2 1 2 4 6 7 6 6 7 7 7 6 4 2 1 3 5
10 9 4 2 4 5 5 9 9 9 10 8 7 8 9 9 8 8 8 5 5 3 4 7 7 6 6 3 1 1 3 6 5 5 6 5 8 9 9 6 9 6 9 9 8 8 7 6 6 5 4 5 6 6 5 5 5 5 4 4 3 4 4 2 4 4 6 3 1 0 2 4 7 7 6 6 7 7 7 7 6 6 5 4 4
8 9 10 6 3 2 4 5 4 8 8 8 8 8 9 9 8 8 8 6 7 8 8 8 7 7 6 5 2 2 3 4 6 5 7 5 6 8 10 9 9 8 9 10 9 7 6 5 4 3 4 4 6 7 6 5 5 5 5 4 4 4 7 4 3 5 4 4 2 3 3 4 5 5 5 6 7 9 9 8 7 6 6 7 7
14 13 12 7 8 7 4 2 3 3 3 4 6 7 8 8 8 8 8 7 8 9 8 8 8 7 6 5 4 4 4 8 5 6 8 5 4 9 10 7 8 9 9 9 9 7 6 5 5 5 4 7 7 7 6 5 5 5 4 4 5 6 4 7 3 4 4 2 1 2 2 3 4 4 4 6 8 9 10 10 10 10 9 9 9
12 12 13 13 13 10 3 2 4 5 5 3 2 4 8 8 7 7 7 6 8 7 9 9 8 7 7 6 6 6 4 8 10 8 10 7 4 8 1 3 7 8 8 8 8 8 7 6 5 5 6 8 8 7 6 6 5 5 4 3 4 4 7 5 4 5 4 3 2 1 1 4 4 5 4 5 8 9 10 10 10 10 10 9 10
11 13 12 12 11 12 11 7 6 3 6 5 5 3 5 8 8 8 8 8 8 8 8 8 8 7 7 7 8 5 6 6 7 7 10 9 7 8 11 8 4 8 7 8 7 8 7 5 4 4 6 7 8 7 6 6 5 3 2 1 2 4 4 4 4 5 2 2 2 1 4 3 2 3 4 7 9 10 11 11 11 12 12 12 11
11 13 13 13 12 12 14 10 11 12 5 3 6 5 4 6 5 7 8 8 9 8 7 8 8 7 6 7 6 4 6 5 6 4 7 7 8 9 6 5 2 3 7 7 7 6 6 4 3 3 5 7 7 8 8 7 5 3 2 4 5 4 4 5 3 3 5 6 5 5 8 7 7 6 7 7 9 11 12 12 12 12 12 13 13
11 11 12 14 13 12 13 13 11 13 12 8 2 4 4 3 4 3 3 5 6 6 6 4 5 5 7 5 3 2 4 5 4 5 4 5 5 6 5 4 3 4 6 6 7 6 5 5 4 4 5 7 9 5 4 5 6 5 4 2 2 4 5 1 5 4 5 4 2 2 7 3 4 6 8 9 10 12 14 13 13 13 14 14 14
13 11 11 13 12 11 12 13 13 12 13 10 5 5 5 4 4 5 4 6 5 5 5 4 4 5 4 3 4 2 3 4 4 4 2 7 6 8 6 4 4 5 5 6 5 4 5 5 4 3 5 7 6 5 5 4 3 6 4 3 4 5 3 2 2 3 4 5 4 3 3 1 3 5 7 9 12 13 14 15 15 15 15 15 14
12 10 11 9 12 11 13 11 12 13 11 8 9 4 6 6 4 5 5 5 5 4 4 4 4 3 3 3 3 4 3 3 5 11 2 1 3 8 6 5 6 6 7 5 5 5 4 3 4 4 4 3 5 4 6 5 4 4 4 3 3 1 3 3 3 3 4 3 3 7 3 5 8 8 9 11 13 14 14 15 15 15 15 15 15
11 10 8 11 13 13 12 12 12 10 11 8 8 9 4 6 5 5 5 5 5 5 4 4 4 4 4 4 3 3 2 2 3 4 4 4 1 1 3 3 3 3 5 3 3 2 1 2 2 3 3 4 6 2 2 2 4 5 5 4 2 1 0 1 3 3 3 4 4 7 5 3 3 4 8 12 14 14 14 14 15 15 15 15 15
10 10 12 12 13 13 13 11 11 11 10 9 8 8 11 3 2 5 5 5 6 5 4 4 5 4 3 5 3 3 4 3 0 4 3 4 6 5 4 3 2 3 3 2 1 3 5 3 4 4 5 0 3 4 2 2 2 4 3 1 1 1 0 2 3 3 3 4 3 7 2 4 5 7 8 11 13 13 13 13 14 14 14 14 14
11 11 10 10 11 13 13 12 11 10 11 9 8 8 8 8 2 1 2 4 5 4 4 3 4 4 3 4 3 2 4 2 3 3 4 3 2 1 1 2 1 1 2 2 5 5 4 5 4 3 3 2 1 3 1 1 1 1 1 1 0 1 1 3 3 4 3 4 5 8 6 6 7 9 10 11 13 13 13 13 13 13 13 14 14
10 12 12 12 11 13 14 13 12 11 10 11 10 7 8 8 6 3 1 3 4 4 3 5 5 5 2 3 4 2 3 2 2 2 2 2 1 2 1 4 2 2 2 5 5 5 6 4 5 3 3 2 2 3 3 2 2 3 1 2 2 3 4 4 5 4 5 5 4 5 7 7 8 10 11 12 13 14 14 15 15 14 14 14 14
13 13 12 12 12 12 13 14 13 12 12 11 9 9 8 8 7 2 2 0 3 4 4 5 6 7 4 3 2 3 3 2 1 1 4 4 3 3 4 4 3 2 1 4 5 5 6 5 5 5 5 5 3 4 3 2 1 1 3 3 3 2 2 3 3 3 4 4 4 5 9 8 8 10 12 13 14 14 14 14 15 15 15 15 16
11 10 11 11 12 12 12 13 12 11 10 9 9 9 8 9 8 8 9 2 1 2 4 6 5 5 4 3 5 3 2 3 3 1 0 3 3 2 2 2 3 4 5 5 5 3 2 2 1 3 4 2 2 3 1 1 2 4 3 1 1 1 3 4 3 4 4 5 5 5 8 9 10 11 12 13 14 14 14 14 14 15 15 16 16
11 11 9 10 11 13 12 12 12 12 9 10 9 9 10 10 9 10 9 8 8 8 8 7 7 7 7 8 8 8 6 7 6 4 2 2 2 4 2 2 2 4 5 2 3 5 4 3 3 3 3 3 4 3 1 1 1 1 1 2 3 3 4 5 3 3 3 4 5 4 5 9 10 10 11 12 14 15 15 14 14 15 15 15 15
9 11 10 7 10 12 12 12 11 11 11 9 8 10 11 9 9 9 10 10 8 8 8 8 8 7 8 8 8 7 7 6 6 5 5 5 3 1 2 2 2 1 1 2 2 2 4 2 1 2 2 1 1 2 2 2 3 4 3 3 2 2 3 3 4 4 4 4 4 4 4 5 8 9 10 10 12 13 14 14 14 15 15 15 15
7 8 12 11 10 11 11 11 9 10 11 11 8 9 9 11 11 10 11 10 8 9 9 8 7 8 8 8 8 9 8 7 6 6 5 3 4 4 0 3 4 2 2 3 3 3 3 4 3 2 3 3 1 1 0 0 2 4 3 4 3 3 3 3 3 3 3 3 3 4 5 4 3 5 6 8 10 10 11 13 14 14 14 14 15
7 8 11 12 9 7 8 8 8 10 10 8 8 8 9 10 9 10 11 12 10 10 9 8 9 8 8 9 9 9 8 7 7 6 5 5 4 5 5 4 2 1 1 1 0 1 2 2 2 1 1 2 1 1 0 3 4 3 3 3 2 3 4 4 5 4 3 4 5 4 4 4 4 3 3 3 4 7 9 10 12 12 12 13 14
7 9 11 11 10 8 6 8 10 9 9 9 10 9 10 9 8 9 10 11 9 7 7 6 7 8 8 10 10 9 10 9 7 6 7 7 6 6 6 5 5 5 4 4 3 3 3 2 4 4 3 5 4 5 5 4 4 4 4 3 3 4 3 3 3 3 3 4 4 3 2 3 3 4 3 3 5 6 6 7 9 10 12 13 14
8 8 9 10 10 9 9 8 10 11 9 8 8 9 9 9 9 9 9 9 7 6 8 7 7 7 11 10 11 9 10 9 8 7 6 7 7 7 7 7 8 6 6 6 6 6 5 4 4 4 3 2 3 3 4 4 3 4 4 5 4 3 3 3 4 4 5 3 3 4 3 3 5 6 6 5 3 4 8 7 6 8 10 11 13
7 10 11 11 10 11 10 11 10 10 10 8 8 7 6 9 10 10 10 9 9 9 9 8 8 8 9 8 9 8 8 8 8 8 7 7 7 6 7 8 7 7 7 6 7 6 5 4 4 5 2 3 3 1 1 2 3 4 5 5 4 4 3 3 5 4 3 3 3 5 8 9 8 8 7 7 6 6 7 10 11 12 11 12 10
5 6 8 9 10 9 8 9 8 8 8 8 7 7 7 7 8 8 7 8 9 8 9 9 10 9 9 8 7 7 8 8 8 9 8 8 8 7 7 9 8 7 7 7 6 6 6 6 7 8 9 8 6 6 6 6 5 5 5 5 4 3 3 3 3 4 5 5 6 10 8 9 9 8 7 6 7 9 9 12 15 13 13 14 14
5 8 7 8 10 10 8 9 9 9 8 8 7 6 7 9 9 10 10 9 7 8 8 9 8 8 9 9 9 8 8 8 8 9 9 9 9 9 9 10 8 7 7 7 8 8 8 9 9 8 9 9 7 6 5 6 5 5 5 6 5 4 3 4 3 3 6 7 10 8 9 9 8 9 9 11 10 10 11 10 10 8 10 15 13
7 7 10 10 9 9 9 8 9 9 7 7 7 7 8 10 11 10 11 9 9 10 10 10 9 9 9 9 10 10 10 10 10 9 10 9 9 9 9 10 9 8 9 9 7 7 8 10 9 9 7 7 8 8 6 5 4 5 5 5 5 3 2 6 9 8 8 8 9 10 10 9 8 9 10 10 10 10 10 9 9 8 9 12 15
9 10 9 9 9 8 8 11 10 9 8 8 9 9 9 8 8 9 8 7 9 9 8 9 9 9 9 10 10 9 9 9 10 10 10 9 9 9 9 10 9 9 9 9 8 9 9 8 7 8 9 10 11 10 11 5 5 5 4 4 3 7 8 11 10 10 9 9 9 10 9 10 10 11 10 10 10 9 8 9 9 8 9 8 10
9 10 9 8 7 7 9 9 8 8 9 8 7 8 7 7 7 7 7 7 8 9 9 9 8 8 10 10 9 9 10 10 10 10 9 9 9 9 9 9 9 8 8 8 10 10 11 10 6 7 8 9 9 10 12 6 6 5 4 5 5 4 6 9 11 11 10 9 9 9 10 11 11 9 10 9 9 10 9 9 9 8 9 8 9
6 7 8 8 8 8 7 7 7 7 7 7 7 6 6 8 8 7 6 6 8 8 8 8 8 10 11 11 10 10 10 10 10 10 9 9 9 8 8 7 8 7 8 9 10 11 9 10 9 6 5 6 6 9 12 11 5 4 3 1 3 3 3 8 8 9 10 9 9 10 9 10 12 8 8 8 8 9 8 9 10 9 9 8 9
6 7 8 8 6 7 7 6 7 7 6 6 7 7 7 6 7 7 7 7 6 6 8 9 10 11 12 11 10 10 10 10 9 9 9 9 9 9 7 7 8 8 8 9 10 10 10 9 9 9 6 9 8 10 10 11 10 7 4 4 3 3 4 6 9 6 7 8 11 9 8 8 9 9 6 8 8 8 8 9 9 9 9 8 10
6 7 7 7 5 7 7 7 7 7 7 7 7 7 6 6 5 5 5 6 7 7 7 9 9 9 9 10 10 10 10 10 10 10 9 9 8 8 8 8 8 9 8 9 9 9 9 9 9 9 10 7 8 6 10 11 13 11 5 4 5 5 3 5 9 3 7 7 9 8 7 8 8 8 6 7 6 6 8 9 9 8 9 7 10
6 5 4 5 5 6 6 6 5 6 7 8 6 5 5 6 5 5 6 7 8 8 9 8 8 9 9 8 9 10 10 10 9 10 9 9 9 9 9 9 9 8 8 8 8 8 10 10 10 8 10 9 7 9 8 9 10 10 10 8 4 4 2 4 5 5 6 3 6 6 7 9 8 8 5 7 7 7 7 8 8 8 8 5 9
6 5 5 5 6 5 5 5 5 5 6 6 7 4 5 6 7 8 7 8 8 7 6 6 6 6 6 9 8 9 9 10 10 9 9 9 9 9 9 9 9 9 8 8 9 10 8 8 8 10 9 8 8 10 10 7 5 9 7 5 5 3 2 4 5 5 5 2 4 6 6 8 9 6 6 7 7 8 8 6 7 8 8 5 7
6 6 6 6 7 6 6 5 5 6 6 6 7 7 5 5 6 6 7 7 7 7 6 6 6 6 7 8 7 8 9 9 9 10 10 10 9 9 9 9 9 9 8 8 9 9 8 8 9 9 9 9 9 8 8 8 8 6 7 8 7 4 3 5 5 4 3 8 9 5 4 8 7 6 8 7 9 10 9 7 7 8 7 5 6
5 5 6 6 6 6 6 5 6 6 6 7 7 8 7 7 6 5 6 6 5 5 5 6 6 6 7 7 7 7 8 9 9 10 10 10 9 9 9 9 9 9 8 8 9 9 10 10 10 10 10 9 9 8 7 7 7 6 5 7 6 7 7 6 6 6 4 7 8 9 10 8 6 4 6 5 9 9 8 6 7 7 7 5 6
2 4 5 5 6 5 6 6 6 6 6 6 7 8 8 7 7 7 7 6 6 6 5 6 6 6 7 7 7 7 7 7 8 8 8 8 8 8 8 9 9 8 8 8 8 9 9 9 10 10 9 10 8 9 9 7 7 7 7 5 6 5 4 5 6 8 5 5 6 12 11 14 14 9 6 8 9 9 6 7 7 6 5 7 8
2 3 4 4 5 5 5 6 6 6 6 6 6 6 6 6 6 6 6 6 6 5 6 6 6 6 7 6 6 6 6 7 6 7 8 7 8 8 8 8 7 7 8 8 8 8 8 8 8 8 9 10 8 9 9 9 7 7 8 6 6 7 6 6 7 7 6 6 8 8 11 10 11 14 6 8 10 7 6 9 6 5 7 7 7
Wind_Direction
126 133 136 130 138 133 134 134 129 130 124 116 114 125 134 143 130 108 96 102 91 99 101 115 94 96 103 101 99 99 103 112 126 125 111 111 99 93 93 89 97 102 104 113 109 104 104 102 98 93 91 85 80 77 77 78 79 80 80 76 70 63 60 57 59 73 80 84 73 71 68 73 74 72 62 57 54 33 33 63 68 59 63 51 51
139 131 129 135 136 131 136 132 130 132 126 120 104 87 80 85 104 112 108 98 95 95 97 110 105 102 185 110 105 99 100 103 100 98 95 98 98 96 87 69 85 92 104 116 116 109 105 106 104 98 90 86 83 79 77 78 81 82 81 78 74 66 61 58 57 39 71 82 89 85 74 70 68 67 61 61 50 47 46 61 69 58 53 59 55
125 129 131 138 134 132 136 135 135 133 126 120 103 84 83 87 99 117 109 103 105 104 109 112 120 150 140 106 105 105 104 103 104 102 106 108 110 113 119 124 100 86 89 88 104 103 109 107 100 97 89 87 85 83 80 80 84 86 85 84 77 70 67 67 58 48 30 75 102 97 94 75 65 63 64 60 60 55 57 56 62 81 73 61 52
127 126 130 137 135 138 136 139 138 134 130 119 104 92 89 88 95 109 112 110 107 114 121 109 95 125 116 112 109 109 108 109 106 107 107 111 116 122 117 105 99 86 67 106 101 115 117 102 99 95 88 86 85 84 86 87 88 89 90 88 84 78 75 70 53 33 33 27 119 116 66 74 62 73 72 70 63 56 51 65 60 55 57 55 52
128 120 129 140 139 140 140 142 140 134 129 123 116 107 101 93 100 107 110 108 111 98 112 113 102 115 114 110 108 108 109 110 115 113 112 114 114 116 116 117 117 120 131 135 129 114 104 104 99 95 92 87 85 85 89 92 92 92 92 92 90 84 75 49 18 356 343 326 281 314 85 94 91 73 72 71 67 46 87 98 68 51 60 63 58
118 131 140 144 142 143 144 143 141 132 124 123 123 121 111 105 99 103 111 124 129 122 144 82 112 124 111 110 107 104 109 116 119 121 123 122 122 114 116 120 123 130 143 124 106 90 105 103 100 98 95 92 89 90 91 92 92 94 94 92 89 88 81 46 341 336 331 323 305 244 137 131 114 98 77 74 69 57 57 55 45 53 40 40 53
129 146 158 145 139 146 150 142 137 134 130 126 126 125 123 115 110 102 89 93 121 123 115 128 195 106 104 104 104 107 112 119 122 127 126 131 128 127 120 122 123 134 129 118 121 127 112 105 102 102 103 103 102 100 98 93 94 92 93 91 87 85 87 64 330 304 309 322 301 351 93 106 105 90 82 61 73 67 57 58 56 58 44 32 32
90 51 150 143 134 148 147 144 135 132 132 131 129 124 125 131 138 133 138 164 134 132 132 120 89 76 95 108 114 116 119 128 128 130 142 138 155 142 121 116 121 122 118 113 108 112 111 107 109 111 115 112 109 104 102 99 96 93 90 91 88 85 88 295 305 326 314 316 337 45 37 68 89 89 85 84 68 59 51 60 55 58 45 37 34
95 142 150 156 131 147 148 145 138 135 134 138 134 126 121 117 112 127 137 141 143 143 130 119 111 117 134 118 121 130 136 140 141 136 132 146 95 113 118 121 124 121 116 117 120 117 116 121 123 124 117 112 110 107 101 99 93 95 89 84 81 70 42 305 288 294 306 267 29 47 24 26 97 88 78 72 67 49 51 47 42 44 40 30 30
130 176 104 91 140 144 144 142 139 139 141 142 135 131 126 119 117 111 93 82 132 139 138 129 141 123 129 126 128 139 143 143 140 142 144 141 125 132 125 130 126 125 125 120 121 125 127 129 122 114 111 111 108 103 100 96 94 86 86 77 56 16 340 315 329 328 297 340 79 49 8 37 81 88 84 69 65 48 39 63 70 64 58 32 15
122 153 169 136 143 139 133 133 137 133 143 139 139 134 128 122 119 117 106 90 72 111 117 133 132 136 132 133 133 142 142 144 144 147 144 141 138 136 134 131 127 130 128 128 132 133 132 127 123 122 118 115 109 106 102 96 93 87 78 72 44 346 336 326 331 315 306 9 65 48 21 29 80 69 75 73 62 72 65 49 50 58 63 48 34
104 76 115 132 147 132 124 119 121 82 96 131 135 129 128 124 119 116 118 106 86 105 122 130 132 126 134 132 139 145 144 144 142 140 146 159 149 141 144 139 139 131 128 131 134 131 129 131 130 127 125 120 116 112 109 103 89 88 79 53 37 354 326 320 331 305 303 24 40 48 351 51 92 84 71 72 71 117 138 130 142 100 43 3 35
122 123 117 129 134 130 123 125 121 109 123 110 127 131 133 130 125 125 124 117 110 87 119 125 108 111 117 109 142 151 140 136 135 145 144 136 110 129 137 134 136 134 135 134 132 133 135 133 130 131 129 119 110 106 107 90 74 65 37 22 17 345 320 324 313 307 319 33 45 338 295 26 78 84 80 35 45 18 24 11 14 12 10 348 360
156 129 134 143 143 137 126 132 136 137 154 152 152 159 143 134 134 141 133 130 138 114 107 110 103 77 58 44 51 134 114 99 130 108 115 131 122 113 120 115 126 139 141 135 135 135 133 128 122 121 115 107 100 104 91 75 71 71 54 22 16 331 333 316 306 292 296 16 11 8 14 90 81 60 41 50 13 356 1 342 335 345 329 332 339
329 240 101 94 128 133 138 143 151 152 157 170 161 170 159 152 157 161 147 137 148 149 117 114 104 85 74 72 94 141 145 116 105 114 94 134 117 122 119 133 118 136 140 134 135 132 126 120 119 118 119 117 107 96 82 73 60 56 54 41 15 339 1 311 315 325 307 66 31 319 358 86 91 74 58 25 11 337 337 329 318 328 279 303 312
357 339 52 169 137 125 129 151 155 152 161 168 168 173 163 160 163 159 156 154 151 129 139 126 109 101 90 83 100 192 182 129 83 98 124 126 141 138 136 144 151 176 148 143 139 135 130 128 131 130 136 135 121 115 96 78 71 63 52 46 7 347 332 351 295 305 290 151 229 92 15 72 82 65 52 21 359 331 334 330 330 324 292 273 284
14 360 353 11 358 96 123 143 153 160 170 174 176 178 157 160 157 146 151 158 123 100 94 106 111 104 98 90 109 144 182 133 94 122 110 92 149 146 147 174 179 185 161 148 143 142 140 130 115 99 143 125 123 118 102 92 70 60 50 35 14 354 329 331 282 283 317 63 19 30 30 89 64 58 40 11 337 333 337 330 321 316 319 313 309
29 25 12 21 354 348 20 66 147 162 172 183 188 170 156 156 153 144 145 148 123 116 111 107 102 94 91 89 105 140 157 135 131 130 125 92 96 139 148 186 188 177 149 139 130 123 112 103 92 82 72 127 126 122 113 101 91 70 55 32 5 341 317 321 301 295 317 57 50 359 44 85 73 44 20 350 337 326 328 330 328 325 322 320 310
21 25 23 19 7 344 309 238 204 165 156 158 177 163 149 147 145 141 140 139 121 119 119 114 105 98 102 108 101 110 121 151 154 142 140 125 144 100 227 200 199 155 145 129 121 120 112 89 83 89 109 130 138 130 123 103 84 84 68 34 345 336 314 304 293 296 307 355 354 288 70 52 54 12 359 334 323 320 318 320 322 323 316 313 308
10 13 19 14 3 0 354 330 295 222 174 164 164 158 166 155 151 145 140 134 130 126 123 120 116 111 115 125 117 120 121 140 150 146 143 133 161 157 193 215 203 153 142 131 125 115 104 91 82 98 121 138 138 132 118 114 107 98 34 1 338 304 307 287 279 278 312 321 317 305 140 113 42 0 332 313 316 311 311 312 314 316 316 313 308
7 5 8 2 2 360 354 346 349 336 307 205 156 158 165 163 147 141 136 136 136 133 133 129 126 129 126 135 143 162 146 148 157 162 159 164 174 180 195 220 299 177 143 135 121 119 116 116 123 130 140 142 141 133 140 136 133 96 30 353 331 310 278 284 281 358 359 348 337 25 67 55 18 7 341 322 312 307 305 305 305 304 306 309 310
358 357 359 356 359 356 348 346 347 342 335 298 133 142 146 189 154 143 139 140 138 142 150 160 162 144 145 148 154 170 144 140 164 164 159 186 169 189 207 238 274 242 139 135 135 143 145 149 152 149 153 153 142 141 143 150 151 164 177 205 287 269 277 302 3 357 345 329 11 120 91 51 10 344 334 327 316 310 306 303 301 302 302 301 303
354 353 356 352 353 344 348 347 341 338 336 336 307 144 158 195 197 173 163 164 165 170 180 181 177 147 166 163 135 140 112 138 130 99 181 202 181 185 207 223 221 210 142 139 157 147 165 171 166 161 167 180 167 170 171 164 183 186 180 189 224 256 282 17 339 332 320 310 318 131 107 58 334 328 325 318 311 307 303 301 301 299 296 298 298
344 345 348 343 348 350 344 340 340 339 338 333 329 291 168 197 210 179 173 179 173 194 202 175 142 127 134 119 125 141 155 134 141 134 261 144 157 183 204 215 207 184 159 157 162 162 159 176 184 183 169 209 226 191 172 182 178 186 198 196 214 261 15 348 316 285 264 279 289 300 283 296 318 327 325 318 310 302 297 294 291 291 292 293 294
335 334 347 344 350 347 343 340 340 338 336 333 330 327 279 197 185 185 179 180 163 190 189 157 132 140 148 130 129 138 124 97 133 146 167 145 93 178 183 203 187 184 176 171 128 89 269 220 209 214 205 224 238 225 86 105 152 184 189 190 146 123 43 349 323 338 323 313 312 313 318 307 293 284 295 305 304 302 299 295 290 288 287 288 290
332 344 347 342 347 347 341 337 336 338 336 330 328 313 309 250 203 185 180 171 157 182 156 145 134 139 159 132 126 147 135 136 71 121 162 133 157 174 195 216 218 192 164 85 28 198 222 207 211 225 233 233 34 46 86 93 33 9 12 49 136 101 3 289 284 284 290 298 297 301 262 234 244 270 284 296 301 299 297 295 293 289 288 290 290
346 344 336 337 343 342 340 339 341 339 334 327 321 318 311 307 285 288 171 152 154 163 151 145 137 150 124 104 122 158 130 144 145 139 143 126 139 149 28 360 9 100 146 108 223 224 230 205 150 126 63 38 34 34 350 171 156 190 294 289 127 123 201 260 260 255 256 265 266 269 259 235 233 256 273 280 290 291 289 288 287 284 283 284 287
342 339 343 341 341 341 339 338 338 338 340 337 324 319 313 316 293 224 300 166 145 158 152 126 104 73 37 91 88 51 74 64 90 133 134 114 195 117 125 280 276 226 203 188 214 224 229 163 139 150 157 174 182 194 238 230 206 164 159 232 231 203 210 227 240 244 244 245 245 248 265 261 231 250 257 268 280 288 290 290 288 286 286 286 286
342 349 344 339 341 341 342 339 342 343 351 343 349 341 343 317 313 325 217 3 145 157 145 123 116 129 178 131 122 103 73 89 126 150 149 175 154 162 189 167 161 81 36 246 229 237 222 153 158 166 171 183 192 207 209 212 154 188 189 216 218 214 224 230 233 237 247 235 227 232 242 252 227 230 248 262 275 282 286 289 289 289 288 288 287
340 337 346 339 338 342 341 342 342 352 351 356 359 355 349 3 0 5 348 340 45 56 70 55 53 46 43 48 43 51 129 166 146 142 93 112 131 158 136 167 152 167 222 242 249 268 65 52 116 157 158 175 211 223 172 216 205 221 219 179 185 228 245 242 238 240 245 251 245 241 248 249 237 235 242 253 263 269 275 281 286 290 299 299 297
342 336 343 347 336 339 345 343 342 354 354 8 6 3 17 15 9 8 12 8 10 43 55 63 60 48 35 35 37 31 21 24 22 13 39 62 137 149 181 191 190 189 223 257 354 356 12 63 61 61 59 35 3 353 48 341 317 319 262 204 212 216 231 235 233 244 259 258 244 232 239 241 243 243 242 246 254 262 270 275 282 288 299 308 307
343 344 341 349 340 337 347 349 345 357 359 10 11 16 20 21 13 19 17 5 17 35 40 46 53 50 40 38 35 27 22 21 16 7 5 353 11 78 164 196 228 150 144 104 73 11 337 339 62 98 84 60 325 339 352 27 347 323 321 312 274 251 246 234 235 242 248 257 260 262 260 256 255 249 247 247 253 262 266 271 279 287 295 308 315
338 336 339 345 349 341 349 348 342 8 8 6 13 32 30 27 21 26 27 9 18 35 37 28 39 43 40 41 41 29 25 18 2 357 354 0 348 322 55 52 34 35 43 67 60 6 326 296 266 158 163 181 166 283 348 290 255 280 279 281 295 302 300 297 277 271 275 276 274 273 281 281 280 275 253 249 262 265 269 275 279 286 294 304 312
344 335 346 346 349 348 347 341 351 10 19 15 15 21 35 41 35 29 29 26 21 36 36 34 35 36 34 33 38 30 21 16 11 357 344 354 358 22 23 38 36 8 334 311 92 239 273 331 344 32 117 152 154 208 236 280 254 251 260 248 231 234 243 266 258 260 272 287 273 272 280 300 307 310 323 315 270 266 269 270 275 284 293 302 307
357 350 348 346 344 353 346 348 357 7 12 25 27 38 35 34 37 39 42 38 17 22 28 21 24 33 33 34 30 28 25 9 5 10 17 16 21 31 26 6 0 8 14 12 29 54 36 29 51 48 25 33 29 21 5 341 337 324 291 275 263 263 260 260 293 286 270 264 280 281 293 306 312 329 333 328 317 301 270 268 276 281 287 295 300
20 356 345 346 347 354 360 3 10 10 1 22 37 45 45 48 47 46 40 43 17 24 32 25 27 28 36 36 29 30 25 9 1 20 31 25 22 23 13 359 2 16 25 22 27 24 13 36 62 75 69 62 54 15 12 347 332 307 306 312 295 307 320 327 317 301 277 301 322 319 332 341 348 350 349 327 321 332 355 356 326 296 297 297 299
21 15 0 348 353 2 4 7 13 13 3 11 26 39 54 61 57 53 49 47 38 35 38 27 34 38 36 33 26 24 23 11 7 19 30 30 30 27 9 357 7 24 27 25 28 9 8 358 31 23 71 107 59 34 313 292 295 290 293 294 307 324 321 320 301 296 322 320 347 354 20 20 19 15 10 3 7 8 2 352 348 348 340 331 320
15 48 13 353 359 4 4 10 11 22 15 8 21 28 32 48 58 63 61 55 50 44 42 43 44 41 37 33 21 22 24 19 18 28 32 28 34 30 18 10 8 22 32 31 24 10 15 14 47 26 14 15 24 12 353 345 330 319 316 311 312 315 304 295 299 325 354 5 24 43 37 27 14 4 6 6 12 15 10 360 356 354 348 348 348
14 16 28 9 9 4 4 12 15 19 22 17 14 37 45 51 49 49 42 39 44 47 46 48 46 42 43 33 32 29 20 14 21 34 42 38 38 33 33 22 21 23 28 29 24 18 30 38 47 47 41 34 12 8 343 323 315 308 302 299 300 297 305 312 350 37 19 51 58 48 33 22 15 12 5 18 19 17 13 2 348 351 349 340 343
13 15 21 20 18 4 7 15 19 16 24 27 20 21 32 39 40 33 43 28 37 41 42 44 41 43 43 44 41 41 34 31 31 35 43 40 41 38 39 32 30 33 38 32 17 15 23 41 40 46 45 38 27 359 346 330 303 278 279 275 253 267 1 41 34 26 62 59 56 44 27 15 20 12 15 18 12 14 6 356 347 354 356 341 348
12 14 23 22 19 18 9 19 20 19 24 28 32 29 23 29 41 44 46 37 37 34 41 43 42 43 41 43 45 44 42 38 38 37 41 42 44 40 39 38 37 38 40 35 25 34 30 45 53 46 42 39 22 3 355 320 5 353 337 332 1 99 74 51 40 30 39 56 51 43 27 22 16 15 13 13 6 3 359 352 348 352 353 344 353
9 8 11 15 14 16 26 28 19 19 22 30 37 41 36 39 41 42 48 47 50 46 40 34 39 43 44 44 46 44 43 42 39 37 41 41 42 42 42 40 38 44 46 43 42 39 36 35 24 57 45 51 42 11 4 2 35 14 342 345 32 64 69 48 33 26 19 53 51 42 32 23 15 9 17 4 360 358 354 349 343 348 351 349 354
6 7 358 9 15 16 23 26 22 21 25 30 30 34 46 47 49 47 44 62 52 55 63 58 48 46 44 41 40 39 39 41 39 38 41 38 42 47 47 47 48 46 51 46 39 41 38 38 35 41 47 46 56 29 26 34 20 309 228 304 36 333 8 22 9 11 14 35 35 42 37 30 9 2 21 4 357 357 353 348 342 347 346 349 359
12 7 4 5 10 17 16 29 21 16 17 30 39 35 35 55 65 65 62 57 58 58 59 52 50 48 46 41 41 38 38 42 37 39 42 40 41 46 44 45 50 50 53 55 46 45 37 37 38 41 41 54 32 33 29 27 34 10 41 25 338 23 353 10 339 321 15 27 29 30 33 26 13 353 13 9 355 354 348 343 345 343 343 355 360
14 11 3 2 8 12 12 24 24 15 15 12 42 46 42 40 45 56 59 61 55 49 49 48 46 50 52 43 39 40 40 42 40 38 42 41 39 44 48 47 45 42 46 51 50 44 42 38 35 40 40 48 47 41 35 30 36 36 46 25 19 45 34 310 323 286 22 7 20 18 23 19 6 352 354 357 347 349 344 340 342 342 340 360 0
11 5 3 359 10 11 17 23 26 23 12 8 16 48 45 47 45 46 47 47 47 39 39 41 45 49 52 51 47 42 43 45 41 41 41 42 42 41 45 49 47 45 44 50 53 49 42 41 33 38 39 34 54 49 41 27 36 37 44 59 55 99 346 318 12 327 343 3 6 17 14 11 355 343 345 349 342 343 343 336 334 337 336 356 359
360 358 1 6 9 19 22 27 29 24 12 16 11 34 55 53 55 56 57 61 70 59 52 46 56 60 62 56 54 46 42 46 44 40 39 40 39 41 44 47 47 48 46 48 47 46 43 41 40 43 40 35 37 57 44 22 26 37 32 44 72 79 86 22 13 305 324 347 11 7 7 4 349 337 346 339 337 336 332 327 325 329 331 341 360
350 354 360 1 5 13 22 30 30 28 23 20 20 21 40 51 61 63 65 64 60 64 50 50 48 51 56 56 55 51 44 43 46 43 40 40 40 39 40 44 46 46 43 45 45 41 42 40 42 45 46 41 39 49 51 35 41 29 19 29 28 33 33 61 27 358 301 312 320 353 356 355 347 349 344 334 347 333 323 321 323 325 323 331 352
353 356 1 354 353 4 19 26 35 30 28 28 30 26 38 39 44 55 62 57 66 65 57 51 51 41 52 45 46 45 44 40 40 42 40 40 40 40 39 43 43 42 42 45 43 40 41 42 39 39 41 43 41 38 46 43 37 34 24 32 28 25 20 22 23 6 358 326 314 339 333 337 329 339 338 344 337 322 312 312 319 322 317 332 347
346 7 358 357 356 359 16 21 25 32 30 31 36 36 34 38 44 44 53 53 58 53 51 52 52 44 54 48 43 42 36 36 33 34 37 35 38 40 40 42 42 42 41 40 40 39 38 40 40 43 41 47 39 38 41 33 34 29 33 28 34 21 34 23 19 6 357 16 339 325 335 339 340 334 332 341 332 317 323 326 317 322 338 347 335
27 27 6 1 353 2 15 21 18 23 26 32 36 44 41 42 46 44 49 56 54 60 54 46 42 44 52 51 49 44 40 41 35 31 33 33 35 37 41 41 42 43 44 41 42 39 34 36 36 40 44 45 40 39 37 34 32 29 24 25 31 33 31 15 360 358 3 342 335 325 328 335 325 318 339 336 323 315 338 320 317 342 352 334 327